CZ-6A DEB, 56237

Orbit data source: Space-Track

CZ-6A DEB, 56237 is space debris in SSO originally from a launch on Fri, 11 Nov 2022 UTC launched from the Taiyaun Space Center, China (TSC). Debris objects in space refer to the collection of defunct objects orbiting the Earth. Examples of debris include non-operational satellites, rocket bodies, and fragments generated from explosions, collisions, or faulty payload assembly.

Loading next visibility...
Identifier
56237, 2022-151ABD
Orbit
SSO
Country
Flag of CNCN / PRC
Related business
Manufacturer
SAST
Mission
Spacecraft
Bus & Motor
Unknown
Mass
Unknown
Launch date (UTC)
2022-11-11 (3 years ago)
Launch vehicle
Unknown
Launch site
Taiyaun Space Center, China (TSC)
Object type
Payload
Rocket body
Debris
Shape & HBR
Unknown shape, 0.1 m
Radar Cross Section
Small (<0.1 m²)

Expand to show TLE details & history
Last TLE update: 12 hours ago

TLE from 12 hours ago
0 CZ-6A DEB
1 56237U 22151ABD 25355.34648143  .00001163  00000-0  84961-3 0  9999
2 56237  98.8870 323.3869 0127863 214.3338 144.9512 13.94163214140083
Epoch: 2025-12-21T08:18Z
TLE epoch observation values (Epoch: 2025-12-21T08:18:55.995Z)
Latitude
0.00004°
Longitude
108.49334°
Altitude
993.685 km
Speed
7.316 km/s
True Right ascension
21h 33m 32s
True Declination
0° 00' 00"
Sunlit
Object was in daylight at epoch
Visualization orbit readout
Latitude
Unknown
Longitude
Unknown
Altitude
Unknown
Speed
Unknown
Apparent Right ascension
Unknown
Apparent Declination
Unknown
Sunlit
N/A
Visualization observer readout
Local Sidereal Time
19:29:50
Azimuth
Unknown
Elevation
Unknown
Doppler factor
Unknown
Orbital elements
Apogee altitude
1,004.483 km
Perigee altitude
818.074 km
Semi-major axis
7,289.415 km
Eccentricity
0.01279
Inclination
98.887°
RAAN
323.3869°
Arg. of periapsis
214.3338°
True anomaly
145.78173°
Mean anomaly
144.9512°
Eccentric anomaly
145.36754°
Mean motion
3.48742 °/min
Orbital period
103.23 mins
BSTAR
0.00084961
Loading maneuver chart data...
Computing Atmospheric mass density...
Loading historical data...
Loading historical data...
Loading historical data...
Loading historical data...
Loading historical data...
Loading historical data...
Loading historical data...

Documentation

Showing up to 5 results
|